2023/01/31 00:00:00,71.3,-1.1
2023/01/31 00:10:00,71.0,-1.3
2023/01/31 00:20:00,70.7,-1.2
2023/01/31 00:30:00,70.6,-1.2
2023/01/31 00:40:00,70.4,-1.1
2023/01/31 00:50:00,70.4,-1.2
2023/01/31 01:00:00,70.4,-1.0
2023/01/31 01:10:00,70.3,-1.1
2023/01/31 01:20:00,70.3,-1.3
2023/01/31 01:30:00,70.2,-4.3
2023/01/31 01:40:00,70.5,-1.1
2023/01/31 01:50:00,70.7,-1.2
2023/01/31 02:00:00,70.5,-1.3
2023/01/31 02:10:00,70.3,-1.2
2023/01/31 02:20:00,70.3,-0.7
2023/01/31 02:30:00,70.6,-1.5
2023/01/31 02:40:00,70.5,-1.2
2023/01/31 02:50:00,70.5,-1.2
2023/01/31 03:00:00,70.3,-1.6
2023/01/31 03:10:00,70.1,-1.3
2023/01/31 03:20:00,70.1,-1.4
2023/01/31 03:30:00,69.9,-1.6
2023/01/31 03:40:00,69.7,-1.2
2023/01/31 03:50:00,69.7,-1.4
2023/01/31 04:00:00,69.8,-2.6
2023/01/31 04:10:00,70.1,-1.2
2023/01/31 04:20:00,70.2,-1.2
2023/01/31 04:30:00,70.2,-1.1
2023/01/31 04:40:00,70.1,-1.5
2023/01/31 04:50:00,70.1,-1.3
2023/01/31 05:00:00,69.9,-1.2
2023/01/31 05:10:00,69.8,-1.6
2023/01/31 05:20:00,69.5,-1.7
2023/01/31 05:30:00,69.2,-1.5
2023/01/31 05:40:00,69.1,-1.3
2023/01/31 05:50:00,69.3,-1.7
2023/01/31 06:00:00,69.5,-1.2
2023/01/31 06:10:00,69.5,-1.2
2023/01/31 06:20:00,69.5,-1.4
2023/01/31 06:30:00,69.4,-1.4
2023/01/31 06:40:00,69.4,-1.7
2023/01/31 06:50:00,69.3,-2.4
2023/01/31 07:00:00,69.3,-3.1
2023/01/31 07:10:00,69.2,-2.8
2023/01/31 07:20:00,69.2,-3.5
2023/01/31 07:30:00,69.1,-3.4
2023/01/31 07:40:00,68.8,-3.2
2023/01/31 07:50:00,68.6,-2.4
2023/01/31 08:00:00,68.6,-2.6
2023/01/31 08:10:00,68.6,-2.6
2023/01/31 08:20:00,68.7,-2.4
2023/01/31 08:30:00,68.8,-2.4
2023/01/31 08:40:00,68.8,-2.9
2023/01/31 08:50:00,68.7,-2.3
2023/01/31 09:00:00,68.5,-2.3
2023/01/31 09:10:00,68.4,-1.7
2023/01/31 09:20:00,68.4, 2.5
2023/01/31 09:30:00,68.4, 5.3
2023/01/31 09:40:00,68.3, 8.7
2023/01/31 09:50:00,68.2,10.7
2023/01/31 10:00:00,68.2, 2.5
2023/01/31 10:10:00,68.1, 2.1
2023/01/31 10:20:00,67.9, 1.2
2023/01/31 10:30:00,67.5, 5.8
2023/01/31 10:40:00,67.3, 3.8
2023/01/31 10:50:00,67.2, 7.5
2023/01/31 11:00:00,67.2, 7.1
2023/01/31 11:10:00,67.2, 8.1
2023/01/31 11:20:00,67.3, 8.2
2023/01/31 11:30:00,67.2, 8.9
2023/01/31 11:40:00,66.5, 7.6
2023/01/31 11:50:00,66.4,12.4
2023/01/31 12:00:00,65.7, 6.1
2023/01/31 12:10:00,64.8, 4.4
2023/01/31 12:20:00,64.5, 3.6
2023/01/31 12:30:00,64.3, 6.0
2023/01/31 12:40:00,64.1, 4.2
2023/01/31 12:50:00,63.9, 3.3
2023/01/31 13:00:00,63.6, 3.8
2023/01/31 13:10:00,63.2, 4.6
2023/01/31 13:20:00,63.1, 3.5
2023/01/31 13:30:00,63.0, 3.3
2023/01/31 13:40:00,62.8, 4.1
2023/01/31 13:50:00,62.6, 5.0
2023/01/31 14:00:00,62.4, 7.8
2023/01/31 14:10:00,62.2, 6.5
2023/01/31 14:20:00,61.8, 6.9
2023/01/31 14:30:00,61.4, 5.6
2023/01/31 14:40:00,61.2, 4.3
2023/01/31 14:50:00,61.0, 3.3
2023/01/31 15:00:00,60.7, 4.7
2023/01/31 15:10:00,60.6, 3.9
2023/01/31 15:20:00,60.5, 4.2
2023/01/31 15:30:00,60.4, 4.6
2023/01/31 15:40:00,60.3, 3.5
2023/01/31 15:50:00,60.1, 3.0
2023/01/31 16:00:00,59.9, 3.0
2023/01/31 16:10:00,59.8, 2.0
2023/01/31 16:20:00,59.6, 2.0
2023/01/31 16:30:00,59.5, 1.6
2023/01/31 16:40:00,59.5, 1.3
2023/01/31 16:50:00,59.5, 0.7
2023/01/31 17:00:00,59.3, 0.5
2023/01/31 17:10:00,59.3, 0.6
2023/01/31 17:20:00,59.3, 0.4
2023/01/31 17:30:00,59.2, 0.7
2023/01/31 17:40:00,59.0, 0.6
2023/01/31 17:50:00,58.9, 0.3
2023/01/31 18:00:00,58.9, 0.0
2023/01/31 18:10:00,58.9,-0.2
2023/01/31 18:20:00,58.8,-0.4
2023/01/31 18:30:00,58.6,-0.3
2023/01/31 18:40:00,58.7,-0.6
2023/01/31 18:50:00,58.6,-0.3
2023/01/31 19:00:00,58.5,-0.5
2023/01/31 19:10:00,58.5,-0.5
2023/01/31 19:20:00,58.5,-1.0
2023/01/31 19:30:00,58.5,-0.4
2023/01/31 19:40:00,58.3,-0.4
2023/01/31 19:50:00,58.1,-0.7
2023/01/31 20:00:00,58.0,-1.1
2023/01/31 20:10:00,58.0,-0.9
2023/01/31 20:20:00,58.1,-0.9
2023/01/31 20:30:00,58.2,-1.1
2023/01/31 20:40:00,58.2,-0.8
2023/01/31 20:50:00,58.1,-1.2
2023/01/31 21:00:00,58.1,-1.2
2023/01/31 21:10:00,58.0,-1.1
2023/01/31 21:20:00,57.9,-1.4
2023/01/31 21:30:00,57.8,-1.4
2023/01/31 21:40:00,57.7,-1.2
2023/01/31 21:50:00,57.6,-1.5
2023/01/31 22:00:00,57.6,-1.2
2023/01/31 22:10:00,57.6,-1.4
2023/01/31 22:20:00,57.6,-1.7
2023/01/31 22:30:00,57.5,-1.5
2023/01/31 22:40:00,57.4,-1.7
2023/01/31 22:50:00,57.2,-1.6
2023/01/31 23:00:00,57.2,-1.4
2023/01/31 23:10:00,57.2,-1.5
2023/01/31 23:20:00,57.2,-1.6
2023/01/31 23:30:00,57.2,-1.8
2023/01/31 23:40:00,57.2,-1.9
2023/01/31 23:50:00,57.2,-2.1
